Location: Elstree
(51.6403°N, 0.2969°W)
Time: 20:10:40
(UTC+00:00)

IRIDIUM 33 DEB - Visible Passes

Search period start: 22 January 2022 00:00
Search period end: 01 February 2022 00:00
Orbit: 724 x 735 km, 86.3° (Epoch: 22 January)

Date Brightness Start Highest point End Pass type
(mag) Time Alt. Az. Time Alt. Az. Time Alt. Az.
22 Jan ? 05:32:43 10° SSE 05:37:22 41° E 05:42:03 10° NNE visible
22 Jan ? 07:12:47 10° SW 07:17:14 31° WNW 07:21:41 10° NNW visible
22 Jan ? 17:29:44 10° N 17:34:45 83° E 17:39:43 10° S visible
22 Jan ? 19:10:54 10° NW 19:13:47 16° WNW 19:16:41 10° WSW visible
23 Jan ? 04:46:38 10° ESE 04:50:07 19° ENE 04:53:36 10° NNE visible
23 Jan ? 06:24:22 10° SSW 06:29:20 68° W 06:34:21 10° N visible
23 Jan ? 18:22:11 10° NNW 18:26:37 33° W 18:31:00 10° SW visible
24 Jan ? 05:36:51 10° SSE 05:41:43 55° E 05:46:37 10° NNE visible
24 Jan ? 17:34:10 10° N 17:39:10 73° W 17:44:06 10° S visible
24 Jan ? 19:16:20 10° NW 19:17:58 12° WNW 19:19:35 10° W visible
25 Jan ? 04:50:18 10° SE 04:54:22 25° E 04:58:25 10° NNE visible
25 Jan ? 06:28:58 10° SSW 06:33:49 50° W 06:38:42 10° N visible
25 Jan ? 18:26:52 10° NNW 18:30:53 25° W 18:34:51 10° SW visible
26 Jan ? 04:05:29 10° E 04:07:16 12° ENE 04:09:03 10° NE visible
26 Jan ? 05:41:07 10° S 05:46:05 74° E 05:51:06 10° N visible
26 Jan ? 17:38:40 10° NNW 17:43:32 54° W 17:48:20 10° SSW visible
27 Jan ? 04:54:11 10° SE 04:58:37 34° E 05:03:05 10° NNE visible
27 Jan ? 06:33:41 10° SW 06:38:19 37° WNW 06:42:59 10° N visible
27 Jan ? 18:31:41 10° NNW 18:35:06 19° WNW 18:38:29 10° WSW visible
28 Jan ? 04:08:28 10° ESE 04:11:26 16° ENE 04:14:24 10° NE visible
28 Jan ? 05:45:29 10° S 05:50:29 82° W 05:55:32 10° N visible
28 Jan ? 17:43:12 10° NNW 17:47:50 40° W 17:52:26 10° SSW visible
29 Jan ? 04:58:11 10° SSE 05:02:55 45° E 05:07:41 10° NNE visible
29 Jan ? 06:38:33 10° SW 06:42:51 28° WNW 06:47:11 10° NNW visible
29 Jan ? 18:36:44 10° NW 18:39:16 14° WNW 18:41:48 10° WSW visible
30 Jan ? 04:11:56 10° SE 04:15:37 21° ENE 04:19:19 10° NNE visible
30 Jan ? 05:49:58 10° SSW 05:54:55 61° W 05:59:53 10° N visible
30 Jan ? 17:47:48 10° NNW 17:52:06 30° W 17:56:22 10° SW visible
31 Jan ? 05:02:20 10° SSE 05:07:14 61° E 05:12:11 10° N visible
31 Jan ? 06:43:36 10° WSW 06:47:25 22° WNW 06:51:16 10° NNW visible
31 Jan ? 18:42:42 10° WNW 18:43:24 10° WNW 18:44:05 10° WNW visible
